Weather History for Cheyenne, WY

Change the Weather History Date:

Thursday, November 29, 2012

  Actual Average Record
Temperature  
Mean Temperature 42 °F 30 °F  
Max Temperature 57 °F 40 °F 65 °F (1945)
Min Temperature 27 °F 19 °F -12 °F (1877)
Degree Days  
Heating Degree Days 23 35  
Month to date heating degree days 718 854  
Since 1 July heating degree days 1520 1713  
Cooling Degree Days 0 0  
Month to date cooling degree days 0 0  
Year to date cooling degree days 568 348  
Moisture  
Dew Point 18 °F    
Average Humidity 32    
Maximum Humidity 42    
Minimum Humidity 21    
Precipitation  
Precipitation 0.00 in 0.01 in 0.42 in (1927)
Month to date precipitation 0.02 0.57  
Year to date precipitation 9.58 15.43  
Snow  
Snow 0.00 in 0.30 in 3.20 in (1927)
Month to date snowfall 0.4 7.7  
Since 1 July snowfall 10.6 14.0  
Snow Depth 0.00 in    
Sea Level Pressure  
Sea Level Pressure 29.94 in    
Wind  
Wind Speed 16 mph (West)    
Max Wind Speed 35 mph    
Max Gust Speed 44 mph    
Visibility 10 miles    
Events      
T = Trace of Precipitation, MM = Missing Value Source: NWS Daily Summary

Daily Weather History Graph

Daily Weather History Graph

Search for Another Location

Airport:

Trip Planner

Search our weather history database for the weather conditions in past years. The results will help you decide how hot, cold, wet, or windy it might be!

Date:

Astronomy

Nov. 29, 2012 Rise Set
Actual Time 7:03 AM MST 4:31 PM MST
Civil Twilight 6:33 AM MST 5:02 PM MST
Nautical Twilight 5:58 AM MST 5:36 PM MST
Astronomical Twilight 5:25 AM MST 6:09 PM MST
Moon 5:36 PM MST (11/29) 7:52 AM MST (11/29)
Length of Visible Light 10h 29m
Length of Day
9h 27m
Full, 99% of the Moon is Illuminated
Nov 29
Full
Dec 6
Last Quarter
Dec 13
New
Dec 19
First Quarter
Dec 28
Full

Hourly Weather History & Observations

Time (MST) Temp. Windchill Dew Point Humidity Pressure Visibility Wind Dir Wind Speed Gust Speed Precip Events Conditions
12:53 AM 30.0 °F - 9.0 °F 41% 29.99 in 10.0 mi Calm Calm - N/A   Clear
1:53 AM 33.1 °F 27.7 °F 10.9 °F 40% 29.97 in 10.0 mi West 5.8 mph - N/A   Clear
2:53 AM 39.0 °F 33.4 °F 16.0 °F 39% 29.93 in 10.0 mi SW 8.1 mph - N/A   Clear
3:53 AM 44.1 °F 37.7 °F 18.0 °F 35% 29.88 in 10.0 mi WSW 12.7 mph - N/A   Clear
4:53 AM 48.9 °F - 19.0 °F 31% 29.87 in 10.0 mi West 15.0 mph - N/A   Clear
5:53 AM 46.0 °F 40.6 °F 19.0 °F 34% 29.93 in 10.0 mi West 11.5 mph - N/A   Clear
6:53 AM 48.0 °F - 19.9 °F 33% 29.94 in 10.0 mi West 33.4 mph 39.1 mph N/A   Clear
7:53 AM 46.9 °F - 19.0 °F 33% 30.01 in 10.0 mi West 3.5 mph - N/A   Clear
8:53 AM 50.0 °F - 21.0 °F 32% 30.01 in 10.0 mi Variable 3.5 mph - N/A   Clear
9:53 AM 51.1 °F - 21.0 °F 31% 30.00 in 10.0 mi West 24.2 mph 33.4 mph N/A   Clear
10:53 AM 53.1 °F - 19.9 °F 27% 29.99 in 10.0 mi West 28.8 mph 38.0 mph N/A   Clear
11:53 AM 55.9 °F - 19.0 °F 24% 29.96 in 10.0 mi West 28.8 mph 38.0 mph N/A   Clear
12:53 PM 57.0 °F - 18.0 °F 22% 29.91 in 10.0 mi West 28.8 mph 38.0 mph N/A   Clear
1:53 PM 57.0 °F - 18.0 °F 22% 29.89 in 10.0 mi West 26.5 mph 40.3 mph N/A   Clear
2:53 PM 55.9 °F - 17.1 °F 22% 29.88 in 10.0 mi West 20.7 mph 38.0 mph N/A   Clear
3:53 PM 53.1 °F - 16.0 °F 23% 29.90 in 10.0 mi West 12.7 mph 20.7 mph N/A   Clear
4:53 PM 48.9 °F - 17.1 °F 28% 29.93 in 10.0 mi West 13.8 mph - N/A   Clear
5:53 PM 50.0 °F - 17.1 °F 27% 29.92 in 10.0 mi West 25.3 mph 31.1 mph N/A   Clear
6:53 PM 46.9 °F - 17.1 °F 30% 29.97 in 10.0 mi Calm Calm - N/A   Clear
7:53 PM 45.0 °F 37.1 °F 17.1 °F 33% 29.96 in 10.0 mi West 19.6 mph - N/A   Clear
8:53 PM 42.1 °F 34.9 °F 18.0 °F 38% 29.97 in 10.0 mi West 13.8 mph - N/A   Clear
9:53 PM 41.0 °F 33.5 °F 19.0 °F 41% 29.98 in 10.0 mi West 13.8 mph - N/A   Clear
10:53 PM 44.1 °F 38.6 °F 21.0 °F 40% 29.95 in 10.0 mi WNW 10.4 mph - N/A   Clear
11:53 PM 44.1 °F 37.7 °F 19.9 °F 38% 29.94 in 10.0 mi SSW 12.7 mph - N/A   Clear